Location: Unspecified
(40.7945°N, 111.1337°W)
Time: 00:13:07
(UTC-06:00)

Cosmos 1674 - Pass Details

Date: 29 March 2019
Orbit: 497 x 518 km, 82.5° (Epoch: 24 April)

Event Time Altitude Azimuth Distance (km) Brightness Sun altitude
Rises 20:03:52 0° 3° (N) 2,616 6.4 -4.2°
Reaches altitude 10° 20:06:11 10° 14° (NNE) 1,730 5.3 -4.6°
Maximum altitude 20:09:33 30° 77° (ENE) 935 3.5 -5.2°
Drops below altitude 10° 20:12:56 10° 140° (SE) 1,728 4.9 -5.9°
Sets 20:15:14 0° 151° (SSE) 2,612 5.9 -6.3°
